Tracking 22454 objects as of 5-Mar-2021
HD Live streaming from Space Station
objects crossing your sky now

DELTA 1 DEB

Track DELTA 1 DEB now!
10-day predictions


NORAD ID: 21754
Int'l Code: 1975-052JQ
Perigee: 1,080.7 km
Apogee: 1,194.0 km
Inclination: 99.9 °
Period: 107.9 minutes
Semi major axis: 7508 km
RCS: 0.011 m2 (small)
Launch date: June 12, 1975
Source: United States (US)
Launch site: AIR FORCE WESTERN TEST RANGE (AFWTR)

Note: This is SATELLITE DEBRIS
aabbcc
Your satellite tracking list
Your tracking list is empty




NASA's NSSDC Master Catalog

Two Line Element Set (TLE):
1 21754U 75052JQ  21063.30116267  .00000039  00000-0  16345-3 0  9990
2 21754  99.9462   3.8839 0075447 259.9374 254.4785 13.34411066439681
Source of the keplerian elements: AFSPC